Time,TemperatureF,DewpointF,PressureIn,WindDirection,WindDirectionDegrees,WindSpeedMPH,WindSpeedGustMPH,Humidity,HourlyPrecipIn,Conditions,Clouds,dailyrainin,SoftwareType,DateUTC
2013-02-13 00:00:00,27.9,24.8,29.95,SW,229,4.0,5.0,88,0.00,,---,0.00,VWS V14.01,2013-02-13 05:00:00,
2013-02-13 00:05:00,27.9,24.8,29.95,SW,229,4.0,5.0,88,0.00,,---,0.00,VWS V14.01,2013-02-13 05:05:00,
2013-02-13 00:10:00,27.9,24.8,29.94,SW,229,4.0,5.0,88,0.00,,---,0.00,VWS V14.01,2013-02-13 05:10:00,
2013-02-13 00:15:00,28.0,24.6,29.94,SW,229,4.0,4.0,87,0.00,,---,0.00,VWS V14.01,2013-02-13 05:15:00,
2013-02-13 00:20:00,28.0,24.6,29.94,SW,229,4.0,5.0,87,0.00,,---,0.00,VWS V14.01,2013-02-13 05:20:00,
2013-02-13 00:25:00,28.0,24.6,29.94,SW,229,4.0,7.0,87,0.00,,---,0.00,VWS V14.01,2013-02-13 05:25:00,
2013-02-13 00:30:00,28.0,24.6,29.94,SW,229,5.0,6.0,87,0.00,,---,0.00,VWS V14.01,2013-02-13 05:30:00,
2013-02-13 00:35:00,28.1,24.7,29.94,SW,229,3.0,6.0,87,0.00,,---,0.00,VWS V14.01,2013-02-13 05:35:00,
2013-02-13 00:40:00,28.1,24.7,29.94,SW,229,5.0,5.0,87,0.00,,---,0.00,VWS V14.01,2013-02-13 05:40:00,
2013-02-13 00:45:00,28.1,24.7,29.94,SW,229,6.0,6.0,87,0.00,,---,0.00,VWS V14.01,2013-02-13 05:45:00,
2013-02-13 00:50:00,28.2,24.8,29.94,SW,229,5.0,6.0,87,0.00,,---,0.00,VWS V14.01,2013-02-13 05:50:00,
2013-02-13 00:55:00,28.2,24.8,29.94,SW,229,4.0,5.0,87,0.00,,---,0.00,VWS V14.01,2013-02-13 05:55:00,
2013-02-13 01:00:00,28.2,24.8,29.94,SW,229,3.0,4.0,87,0.00,,---,0.00,VWS V14.01,2013-02-13 06:00:00,
2013-02-13 01:05:00,28.2,24.8,29.94,SW,229,4.0,5.0,87,0.00,,---,0.00,VWS V14.01,2013-02-13 06:05:00,
2013-02-13 01:10:00,28.2,24.8,29.94,SW,229,4.0,4.0,87,0.00,,---,0.00,VWS V14.01,2013-02-13 06:10:00,
2013-02-13 01:15:00,28.2,24.8,29.94,SW,229,2.0,4.0,87,0.00,,---,0.00,VWS V14.01,2013-02-13 06:15:00,
2013-02-13 01:20:00,28.2,24.8,29.93,SW,229,4.0,4.0,87,0.00,,---,0.00,VWS V14.01,2013-02-13 06:20:00,
2013-02-13 01:25:00,28.1,24.7,29.93,SW,229,4.0,6.0,87,0.00,,---,0.00,VWS V14.01,2013-02-13 06:25:00,
2013-02-13 01:30:00,28.1,24.7,29.93,SW,229,3.0,5.0,87,0.00,,---,0.00,VWS V14.01,2013-02-13 06:30:00,
2013-02-13 01:35:00,28.1,24.7,29.93,SW,229,3.0,5.0,87,0.00,,---,0.00,VWS V14.01,2013-02-13 06:35:00,
2013-02-13 01:40:00,28.0,24.6,29.93,SW,229,5.0,5.0,87,0.00,,---,0.00,VWS V14.01,2013-02-13 06:40:00,
2013-02-13 01:45:00,28.0,24.4,29.92,SW,229,4.0,5.0,86,0.00,,---,0.00,VWS V14.01,2013-02-13 06:45:00,
2013-02-13 01:50:00,27.9,24.5,29.92,SW,229,5.0,6.0,87,0.00,,---,0.00,VWS V14.01,2013-02-13 06:50:00,
2013-02-13 01:55:00,27.9,24.5,29.92,SW,229,7.0,7.0,87,0.00,,---,0.00,VWS V14.01,2013-02-13 06:55:00,
2013-02-13 02:00:00,27.9,24.5,29.92,SW,229,3.0,4.0,87,0.00,,---,0.00,VWS V14.01,2013-02-13 07:00:00,
2013-02-13 02:05:00,27.8,24.4,29.92,SW,229,2.0,5.0,87,0.00,,---,0.00,VWS V14.01,2013-02-13 07:05:00,
2013-02-13 02:10:00,27.8,24.4,29.92,SW,229,3.0,5.0,87,0.00,,---,0.00,VWS V14.01,2013-02-13 07:10:00,
2013-02-13 02:15:00,27.8,24.4,29.93,SW,229,5.0,6.0,87,0.00,,---,0.00,VWS V14.01,2013-02-13 07:15:00,
2013-02-13 02:20:00,27.8,24.4,29.93,SW,229,7.0,7.0,87,0.00,,---,0.00,VWS V14.01,2013-02-13 07:20:00,
2013-02-13 02:25:00,27.9,24.5,29.92,SW,229,2.0,6.0,87,0.00,,---,0.00,VWS V14.01,2013-02-13 07:25:00,
2013-02-13 02:30:00,28.0,24.6,29.92,SW,229,6.0,7.0,87,0.00,,---,0.00,VWS V14.01,2013-02-13 07:30:00,
2013-02-13 02:35:00,28.0,24.6,29.92,SW,229,5.0,6.0,87,0.00,,---,0.00,VWS V14.01,2013-02-13 07:35:00,
2013-02-13 02:40:00,28.1,24.7,29.92,SW,229,5.0,6.0,87,0.00,,---,0.00,VWS V14.01,2013-02-13 07:40:00,
2013-02-13 02:45:00,28.2,24.8,29.92,WSW,241,5.0,9.0,87,0.00,,---,0.00,VWS V14.01,2013-02-13 07:45:00,
2013-02-13 02:50:00,28.3,24.9,29.92,WSW,243,5.0,5.0,87,0.00,,---,0.00,VWS V14.01,2013-02-13 07:50:00,
2013-02-13 02:55:00,28.3,24.9,29.92,WSW,243,6.0,6.0,87,0.00,,---,0.00,VWS V14.01,2013-02-13 07:55:00,
2013-02-13 03:00:00,28.3,24.7,29.92,SW,235,6.0,6.0,86,0.00,,---,0.00,VWS V14.01,2013-02-13 08:00:00,
2013-02-13 03:05:00,28.3,24.7,29.92,SW,235,5.0,6.0,86,0.00,,---,0.00,VWS V14.01,2013-02-13 08:05:00,
2013-02-13 03:10:00,28.3,24.7,29.91,SW,235,4.0,5.0,86,0.00,,---,0.00,VWS V14.01,2013-02-13 08:10:00,
2013-02-13 03:15:00,28.3,24.7,29.92,SW,235,2.0,3.0,86,0.00,,---,0.00,VWS V14.01,2013-02-13 08:15:00,
2013-02-13 03:20:00,28.2,24.6,29.91,SW,235,3.0,3.0,86,0.00,,---,0.00,VWS V14.01,2013-02-13 08:20:00,
2013-02-13 03:25:00,28.2,24.6,29.91,SSW,198,0.0,2.0,86,0.00,,---,0.00,VWS V14.01,2013-02-13 08:25:00,
2013-02-13 03:30:00,28.2,24.6,29.90,SSW,198,0.0,0.0,86,0.00,,---,0.00,VWS V14.01,2013-02-13 08:30:00,
2013-02-13 03:35:00,28.2,24.6,29.90,SSW,198,0.0,0.0,86,0.00,,---,0.00,VWS V14.01,2013-02-13 08:35:00,
2013-02-13 03:40:00,28.1,24.5,29.90,SSW,198,0.0,0.0,86,0.00,,---,0.00,VWS V14.01,2013-02-13 08:40:00,
2013-02-13 03:45:00,27.9,24.0,29.90,SSW,198,1.0,2.0,85,0.00,,---,0.00,VWS V14.01,2013-02-13 08:45:00,
2013-02-13 03:50:00,27.8,24.2,29.90,SSW,198,1.0,2.0,86,0.00,,---,0.00,VWS V14.01,2013-02-13 08:50:00,
2013-02-13 03:55:00,27.6,24.0,29.90,SSW,198,1.0,2.0,86,0.00,,---,0.00,VWS V14.01,2013-02-13 08:55:00,
2013-02-13 04:00:00,27.5,23.9,29.89,SSW,198,2.0,3.0,86,0.00,,---,0.00,VWS V14.01,2013-02-13 09:00:00,
2013-02-13 04:05:00,27.3,23.7,29.89,SSW,198,1.0,3.0,86,0.00,,---,0.00,VWS V14.01,2013-02-13 09:05:00,
2013-02-13 04:10:00,27.0,23.4,29.89,SSW,198,1.0,2.0,86,0.00,,---,0.00,VWS V14.01,2013-02-13 09:10:00,
2013-02-13 04:15:00,26.7,22.8,29.89,SSW,198,2.0,2.0,85,0.00,,---,0.00,VWS V14.01,2013-02-13 09:15:00,
2013-02-13 04:20:00,26.3,22.4,29.89,SSW,198,3.0,3.0,85,0.00,,---,0.00,VWS V14.01,2013-02-13 09:20:00,
2013-02-13 04:25:00,25.8,23.8,29.89,SSW,198,1.0,2.0,92,0.00,,---,0.00,VWS V14.01,2013-02-13 09:25:00,
2013-02-13 04:30:00,25.4,21.8,29.88,SSW,198,0.0,0.0,86,0.00,,---,0.00,VWS V14.01,2013-02-13 09:30:00,
2013-02-13 04:35:00,25.1,21.5,29.88,SSW,198,2.0,2.0,86,0.00,,---,0.00,VWS V14.01,2013-02-13 09:35:00,
2013-02-13 04:40:00,24.8,21.5,29.88,SSW,198,1.0,1.0,87,0.00,,---,0.00,VWS V14.01,2013-02-13 09:40:00,
2013-02-13 04:45:00,24.5,21.2,29.88,SSW,198,3.0,4.0,87,0.00,,---,0.00,VWS V14.01,2013-02-13 09:45:00,
2013-02-13 04:50:00,24.1,21.1,29.88,SSW,198,3.0,4.0,88,0.00,,---,0.00,VWS V14.01,2013-02-13 09:50:00,
2013-02-13 04:55:00,23.8,20.8,29.88,SSW,198,1.0,2.0,88,0.00,,---,0.00,VWS V14.01,2013-02-13 09:55:00,
2013-02-13 05:00:00,23.6,20.6,29.88,SSW,198,1.0,2.0,88,0.00,,---,0.00,VWS V14.01,2013-02-13 10:00:00,
2013-02-13 05:05:00,23.3,20.5,29.88,SSW,198,1.0,3.0,89,0.00,,---,0.00,VWS V14.01,2013-02-13 10:05:00,
2013-02-13 05:10:00,23.1,20.4,29.88,SSW,198,3.0,3.0,89,0.00,,---,0.00,VWS V14.01,2013-02-13 10:10:00,
2013-02-13 05:15:00,22.9,20.1,29.88,SSW,198,1.0,3.0,89,0.00,,---,0.00,VWS V14.01,2013-02-13 10:15:00,
2013-02-13 05:20:00,22.8,20.3,29.87,SSW,198,2.0,3.0,90,0.00,,---,0.00,VWS V14.01,2013-02-13 10:20:00,
2013-02-13 05:25:00,22.7,20.2,29.87,SSW,198,2.0,3.0,90,0.00,,---,0.00,VWS V14.01,2013-02-13 10:25:00,
2013-02-13 05:30:00,22.6,20.1,29.87,SSW,198,2.0,4.0,90,0.00,,---,0.00,VWS V14.01,2013-02-13 10:30:00,
2013-02-13 05:35:00,22.6,20.4,29.87,SSW,198,3.0,4.0,91,0.00,,---,0.00,VWS V14.01,2013-02-13 10:35:00,
2013-02-13 05:40:00,22.7,20.5,29.87,SSW,193,4.0,5.0,91,0.00,,---,0.00,VWS V14.01,2013-02-13 10:40:00,
2013-02-13 05:45:00,22.8,20.8,29.86,South,181,5.0,5.0,92,0.00,,---,0.00,VWS V14.01,2013-02-13 10:45:00,
2013-02-13 05:50:00,22.9,20.9,29.86,South,180,4.0,5.0,92,0.00,,---,0.00,VWS V14.01,2013-02-13 10:50:00,
2013-02-13 05:55:00,23.0,21.0,29.86,South,180,4.0,4.0,92,0.00,,---,0.00,VWS V14.01,2013-02-13 10:55:00,
2013-02-13 06:00:00,23.0,21.0,29.86,South,180,4.0,5.0,92,0.00,,---,0.00,VWS V14.01,2013-02-13 11:00:00,
2013-02-13 06:05:00,23.2,21.5,29.86,South,180,4.0,5.0,93,0.00,,---,0.00,VWS V14.01,2013-02-13 11:05:00,
2013-02-13 06:10:00,23.3,21.6,29.86,South,180,3.0,4.0,93,0.00,,---,0.00,VWS V14.01,2013-02-13 11:10:00,
2013-02-13 06:15:00,23.4,21.7,29.86,South,180,1.0,2.0,93,0.00,,---,0.00,VWS V14.01,2013-02-13 11:15:00,
2013-02-13 06:20:00,23.4,21.4,29.86,South,180,3.0,3.0,92,0.00,,---,0.00,VWS V14.01,2013-02-13 11:20:00,
2013-02-13 06:25:00,23.4,21.4,29.86,South,180,0.0,2.0,92,0.00,,---,0.00,VWS V14.01,2013-02-13 11:25:00,
2013-02-13 06:30:00,23.4,21.4,29.86,South,180,1.0,3.0,92,0.00,,---,0.00,VWS V14.01,2013-02-13 11:30:00,
2013-02-13 06:35:00,23.3,21.3,29.86,South,180,1.0,2.0,92,0.00,,---,0.00,VWS V14.01,2013-02-13 11:35:00,
2013-02-13 06:40:00,23.2,21.2,29.86,South,180,0.0,1.0,92,0.00,,---,0.00,VWS V14.01,2013-02-13 11:40:00,
2013-02-13 06:45:00,23.2,21.2,29.85,South,180,2.0,2.0,92,0.00,,---,0.00,VWS V14.01,2013-02-13 11:45:00,
2013-02-13 06:50:00,23.1,21.1,29.85,South,180,0.0,0.0,92,0.00,,---,0.00,VWS V14.01,2013-02-13 11:50:00,
2013-02-13 06:55:00,23.0,21.0,29.85,South,180,0.0,0.0,92,0.00,,---,0.00,VWS V14.01,2013-02-13 11:55:00,
2013-02-13 07:00:00,22.9,20.9,29.85,South,180,0.0,0.0,92,0.00,,---,0.00,VWS V14.01,2013-02-13 12:00:00,
2013-02-13 07:05:00,22.5,20.3,29.85,South,180,0.0,0.0,91,0.00,,---,0.00,VWS V14.01,2013-02-13 12:05:00,
2013-02-13 07:10:00,22.1,19.9,29.85,South,180,0.0,0.0,91,0.00,,---,0.00,VWS V14.01,2013-02-13 12:10:00,
2013-02-13 07:15:00,21.8,19.6,29.85,South,180,0.0,0.0,91,0.00,,---,0.00,VWS V14.01,2013-02-13 12:15:00,
2013-02-13 07:20:00,21.6,19.4,29.85,South,180,0.0,0.0,91,0.00,,---,0.00,VWS V14.01,2013-02-13 12:20:00,
2013-02-13 07:25:00,21.3,19.1,29.85,South,180,0.0,0.0,91,0.00,,---,0.00,VWS V14.01,2013-02-13 12:25:00,
2013-02-13 07:30:00,21.1,18.9,29.85,South,180,0.0,0.0,91,0.00,,---,0.00,VWS V14.01,2013-02-13 12:30:00,
2013-02-13 07:35:00,21.1,19.1,29.85,South,180,0.0,0.0,92,0.00,,---,0.00,VWS V14.01,2013-02-13 12:35:00,
2013-02-13 07:40:00,21.3,19.6,29.84,South,180,0.0,0.0,93,0.00,,---,0.00,VWS V14.01,2013-02-13 12:40:00,
2013-02-13 07:45:00,21.5,19.8,29.84,South,180,1.0,2.0,93,0.00,,---,0.00,VWS V14.01,2013-02-13 12:45:00,
2013-02-13 07:50:00,21.7,20.2,29.84,South,180,0.0,0.0,94,0.00,,---,0.00,VWS V14.01,2013-02-13 12:50:00,
2013-02-13 07:55:00,22.0,20.5,29.84,South,180,3.0,4.0,94,0.00,,---,0.00,VWS V14.01,2013-02-13 12:55:00,
2013-02-13 08:00:00,22.3,20.8,29.84,South,180,2.0,3.0,94,0.00,,---,0.00,VWS V14.01,2013-02-13 13:00:00,
2013-02-13 08:05:00,22.7,21.2,29.84,South,180,1.0,3.0,94,0.00,,---,0.00,VWS V14.01,2013-02-13 13:05:00,
2013-02-13 08:10:00,23.0,21.8,29.84,South,180,2.0,3.0,95,0.00,,---,0.00,VWS V14.01,2013-02-13 13:10:00,
2013-02-13 08:15:00,23.2,21.7,29.84,South,180,2.0,5.0,94,0.00,,---,0.00,VWS V14.01,2013-02-13 13:15:00,
2013-02-13 08:20:00,23.4,21.9,29.84,South,180,2.0,4.0,94,0.00,,---,0.00,VWS V14.01,2013-02-13 13:20:00,
2013-02-13 08:25:00,23.6,22.4,29.84,South,180,5.0,5.0,95,0.00,,---,0.00,VWS V14.01,2013-02-13 13:25:00,
2013-02-13 08:30:00,23.7,22.2,29.84,South,180,3.0,3.0,94,0.00,,---,0.00,VWS V14.01,2013-02-13 13:30:00,
2013-02-13 08:35:00,23.8,22.3,29.84,South,180,2.0,3.0,94,0.00,,---,0.00,VWS V14.01,2013-02-13 13:35:00,
2013-02-13 08:40:00,23.9,22.4,29.84,South,180,2.0,4.0,94,0.00,,---,0.00,VWS V14.01,2013-02-13 13:40:00,
2013-02-13 08:45:00,24.0,22.5,29.84,South,180,1.0,2.0,94,0.00,,---,0.00,VWS V14.01,2013-02-13 13:45:00,
2013-02-13 08:50:00,24.2,22.7,29.84,South,180,2.0,3.0,94,0.00,,---,0.00,VWS V14.01,2013-02-13 13:50:00,
2013-02-13 08:55:00,24.5,23.0,29.83,South,180,2.0,2.0,94,0.00,,---,0.00,VWS V14.01,2013-02-13 13:55:00,
2013-02-13 09:00:00,24.8,23.3,29.83,South,180,2.0,3.0,94,0.00,,---,0.00,VWS V14.01,2013-02-13 14:00:00,
2013-02-13 09:05:00,25.2,23.7,29.83,South,180,1.0,3.0,94,0.00,,---,0.00,VWS V14.01,2013-02-13 14:05:00,
2013-02-13 09:10:00,25.5,23.8,29.83,South,180,4.0,5.0,93,0.00,,---,0.00,VWS V14.01,2013-02-13 14:10:00,
2013-02-13 09:15:00,25.8,24.1,29.83,South,180,4.0,5.0,93,0.00,,---,0.00,VWS V14.01,2013-02-13 14:15:00,
2013-02-13 09:20:00,26.2,24.2,29.83,South,180,5.0,6.0,92,0.00,,---,0.00,VWS V14.01,2013-02-13 14:20:00,
2013-02-13 09:25:00,26.5,24.2,29.83,South,182,8.0,9.0,91,0.00,,---,0.00,VWS V14.01,2013-02-13 14:25:00,
2013-02-13 09:30:00,26.8,24.3,29.83,South,181,6.0,9.0,90,0.00,,---,0.00,VWS V14.01,2013-02-13 14:30:00,
2013-02-13 09:36:00,27.0,24.2,29.83,SSE,164,7.0,10.0,89,0.00,,---,0.00,VWS V14.01,2013-02-13 14:36:00,
2013-02-13 09:41:00,27.2,24.1,29.83,South,182,4.0,7.0,88,0.00,,---,0.00,VWS V14.01,2013-02-13 14:41:00,
2013-02-13 09:46:00,27.4,24.3,29.83,SSE,162,7.0,7.0,88,0.00,,---,0.00,VWS V14.01,2013-02-13 14:46:00,
2013-02-13 09:51:00,27.7,24.3,29.82,South,177,4.0,6.0,87,0.00,,---,0.00,VWS V14.01,2013-02-13 14:51:00,
2013-02-13 09:56:00,28.0,24.4,29.82,South,176,4.0,6.0,86,0.00,,---,0.00,VWS V14.01,2013-02-13 14:56:00,
2013-02-13 10:01:00,28.4,24.8,29.82,SSE,148,7.0,7.0,86,0.00,,---,0.00,VWS V14.01,2013-02-13 15:01:00,
2013-02-13 10:06:00,28.5,24.6,29.82,SE,145,7.0,9.0,85,0.00,,---,0.00,VWS V14.01,2013-02-13 15:06:00,
2013-02-13 10:10:00,28.7,24.5,29.82,South,182,3.0,6.0,84,0.00,,---,0.00,VWS V14.01,2013-02-13 15:10:00,
2013-02-13 10:15:00,29.1,24.9,29.82,South,181,5.0,5.0,84,0.00,,---,0.00,VWS V14.01,2013-02-13 15:15:00,
2013-02-13 10:20:00,29.6,25.1,29.83,South,173,5.0,6.0,83,0.00,,---,0.00,VWS V14.01,2013-02-13 15:20:00,
2013-02-13 10:25:00,29.9,25.1,29.83,SSE,163,2.0,7.0,82,0.00,,---,0.00,VWS V14.01,2013-02-13 15:25:00,
2013-02-13 10:30:00,30.2,25.4,29.82,SSE,163,2.0,6.0,82,0.00,,---,0.00,VWS V14.01,2013-02-13 15:30:00,
2013-02-13 10:35:00,30.7,25.6,29.82,SSE,162,4.0,9.0,81,0.00,,---,0.00,VWS V14.01,2013-02-13 15:35:00,
2013-02-13 10:40:00,31.0,25.6,29.83,South,181,6.0,8.0,80,0.00,,---,0.00,VWS V14.01,2013-02-13 15:40:00,
2013-02-13 10:45:00,31.2,25.8,29.83,South,171,6.0,9.0,80,0.00,,---,0.00,VWS V14.01,2013-02-13 15:45:00,
2013-02-13 10:50:00,31.4,25.6,29.82,SSE,161,5.0,8.0,79,0.00,,---,0.00,VWS V14.01,2013-02-13 15:50:00,
2013-02-13 10:55:00,31.7,25.9,29.83,SSE,165,5.0,6.0,79,0.00,,---,0.00,VWS V14.01,2013-02-13 15:55:00,
2013-02-13 11:00:00,32.2,26.1,29.83,SSW,208,6.0,8.0,78,0.00,,---,0.00,VWS V14.01,2013-02-13 16:00:00,
2013-02-13 11:05:00,32.4,26.0,29.83,South,180,6.0,6.0,77,0.00,,---,0.00,VWS V14.01,2013-02-13 16:05:00,
2013-02-13 11:10:00,32.7,26.3,29.83,South,179,7.0,8.0,77,0.00,,---,0.00,VWS V14.01,2013-02-13 16:10:00,
2013-02-13 11:15:00,32.9,26.2,29.83,SSW,196,3.0,8.0,76,0.00,,---,0.00,VWS V14.01,2013-02-13 16:15:00,
2013-02-13 11:20:00,33.3,26.6,29.83,South,189,5.0,7.0,76,0.00,,---,0.00,VWS V14.01,2013-02-13 16:20:00,
2013-02-13 11:25:00,33.5,26.4,29.83,SSW,206,6.0,7.0,75,0.00,,---,0.00,VWS V14.01,2013-02-13 16:25:00,
2013-02-13 11:30:00,33.7,26.6,29.82,SSW,204,3.0,6.0,75,0.00,,---,0.00,VWS V14.01,2013-02-13 16:30:00,
2013-02-13 11:36:00,34.0,26.6,29.82,SSW,207,5.0,7.0,74,0.00,,---,0.00,VWS V14.01,2013-02-13 16:36:00,
2013-02-13 11:41:00,34.2,27.1,29.82,SSW,207,2.0,5.0,75,0.00,,---,0.00,VWS V14.01,2013-02-13 16:41:00,
2013-02-13 11:46:00,34.7,27.3,29.82,SSW,205,3.0,7.0,74,0.00,,---,0.00,VWS V14.01,2013-02-13 16:46:00,
2013-02-13 11:51:00,35.2,27.8,29.82,SSW,205,4.0,6.0,74,0.00,,---,0.00,VWS V14.01,2013-02-13 16:51:00,
2013-02-13 11:56:00,35.2,27.1,29.82,SW,223,7.0,7.0,72,0.00,,---,0.00,VWS V14.01,2013-02-13 16:56:00,
2013-02-13 12:01:00,34.8,27.0,29.82,SW,223,5.0,6.0,73,0.00,,---,0.00,VWS V14.01,2013-02-13 17:01:00,
2013-02-13 12:06:00,34.7,27.3,29.82,SW,223,6.0,7.0,74,0.00,,---,0.00,VWS V14.01,2013-02-13 17:06:00,
2013-02-13 12:11:00,35.1,27.7,29.82,SW,221,6.0,7.0,74,0.00,,---,0.00,VWS V14.01,2013-02-13 17:11:00,
2013-02-13 12:15:00,35.2,27.8,29.81,SW,219,6.0,7.0,74,0.00,,---,0.00,VWS V14.01,2013-02-13 17:15:00,
2013-02-13 12:20:00,35.4,27.6,29.81,SW,225,7.0,8.0,73,0.00,,---,0.00,VWS V14.01,2013-02-13 17:20:00,
2013-02-13 12:25:00,35.5,27.7,29.81,SW,219,8.0,12.0,73,0.00,,---,0.00,VWS V14.01,2013-02-13 17:25:00,
2013-02-13 12:30:00,35.8,28.0,29.81,SSW,212,7.0,8.0,73,0.00,,---,0.00,VWS V14.01,2013-02-13 17:30:00,
2013-02-13 12:35:00,36.1,28.3,29.80,SSW,199,8.0,9.0,73,0.00,,---,0.00,VWS V14.01,2013-02-13 17:35:00,
2013-02-13 12:40:00,36.6,28.4,29.80,South,182,4.0,6.0,72,0.00,,---,0.00,VWS V14.01,2013-02-13 17:40:00,
2013-02-13 12:45:00,37.3,28.8,29.80,SSW,196,6.0,9.0,71,0.00,,---,0.00,VWS V14.01,2013-02-13 17:45:00,
2013-02-13 12:50:00,37.5,29.0,29.80,SSW,206,9.0,13.0,71,0.00,,---,0.00,VWS V14.01,2013-02-13 17:50:00,
2013-02-13 12:55:00,37.3,28.8,29.79,SW,219,9.0,11.0,71,0.00,,---,0.00,VWS V14.01,2013-02-13 17:55:00,
2013-02-13 13:00:00,37.0,28.5,29.79,SSW,210,11.0,12.0,71,0.00,,---,0.00,VWS V14.01,2013-02-13 18:00:00,
2013-02-13 13:05:00,36.8,28.6,29.78,SW,221,9.0,14.0,72,0.00,,---,0.00,VWS V14.01,2013-02-13 18:05:00,
2013-02-13 13:10:00,36.8,28.6,29.78,SSW,208,10.0,12.0,72,0.00,,---,0.00,VWS V14.01,2013-02-13 18:10:00,
2013-02-13 13:15:00,37.0,28.5,29.78,SSW,209,7.0,13.0,71,0.00,,---,0.00,VWS V14.01,2013-02-13 18:15:00,
2013-02-13 13:20:00,37.3,29.1,29.78,SSW,209,6.0,9.0,72,0.00,,---,0.00,VWS V14.01,2013-02-13 18:20:00,
2013-02-13 13:25:00,37.5,29.3,29.78,SW,223,8.0,9.0,72,0.00,,---,0.00,VWS V14.01,2013-02-13 18:25:00,
2013-02-13 13:30:00,37.7,29.2,29.77,SW,219,8.0,11.0,71,0.00,,---,0.00,VWS V14.01,2013-02-13 18:30:00,
2013-02-13 13:36:00,37.8,29.3,29.77,SSW,212,8.0,12.0,71,0.00,,---,0.00,VWS V14.01,2013-02-13 18:36:00,
2013-02-13 13:41:00,38.0,29.5,29.77,SW,216,7.0,9.0,71,0.00,,---,0.00,VWS V14.01,2013-02-13 18:41:00,
2013-02-13 13:46:00,38.1,29.5,29.76,SW,232,12.0,12.0,71,0.00,,---,0.00,VWS V14.01,2013-02-13 18:46:00,
2013-02-13 13:51:00,38.0,29.5,29.77,SW,222,7.0,13.0,71,0.00,,---,0.00,VWS V14.01,2013-02-13 18:51:00,
2013-02-13 13:56:00,38.2,29.3,29.76,SW,219,7.0,10.0,70,0.00,,---,0.00,VWS V14.01,2013-02-13 18:56:00,
2013-02-13 14:01:00,38.6,29.7,29.76,SW,215,8.0,10.0,70,0.00,,---,0.00,VWS V14.01,2013-02-13 19:01:00,
2013-02-13 14:06:00,38.7,29.8,29.76,SW,229,10.0,11.0,70,0.00,,---,0.00,VWS V14.01,2013-02-13 19:06:00,
2013-02-13 14:11:00,38.7,29.8,29.76,SW,222,12.0,12.0,70,0.00,,---,0.00,VWS V14.01,2013-02-13 19:11:00,
2013-02-13 14:16:00,38.7,29.8,29.76,SW,223,13.0,13.0,70,0.00,,---,0.00,VWS V14.01,2013-02-13 19:16:00,
2013-02-13 14:21:00,38.4,29.5,29.75,SW,227,12.0,13.0,70,0.00,,---,0.00,VWS V14.01,2013-02-13 19:21:00,
2013-02-13 14:26:00,38.4,29.5,29.75,SSW,198,7.0,9.0,70,0.00,,---,0.00,VWS V14.01,2013-02-13 19:26:00,
2013-02-13 14:31:00,38.7,29.4,29.75,SSW,211,6.0,10.0,69,0.00,,---,0.00,VWS V14.01,2013-02-13 19:31:00,
2013-02-13 14:36:00,39.1,29.8,29.75,SSW,211,5.0,10.0,69,0.00,,---,0.00,VWS V14.01,2013-02-13 19:36:00,
2013-02-13 14:41:00,39.4,29.7,29.75,SW,221,7.0,10.0,68,0.00,,---,0.00,VWS V14.01,2013-02-13 19:41:00,
2013-02-13 14:46:00,39.6,29.9,29.74,South,190,6.0,10.0,68,0.00,,---,0.00,VWS V14.01,2013-02-13 19:46:00,
2013-02-13 14:51:00,39.8,29.8,29.74,SW,220,6.0,8.0,67,0.00,,---,0.00,VWS V14.01,2013-02-13 19:51:00,
2013-02-13 14:56:00,40.0,30.7,29.75,SW,221,4.0,7.0,69,0.00,,---,0.00,VWS V14.01,2013-02-13 19:56:00,
2013-02-13 15:01:00,40.0,30.3,29.74,SW,220,5.0,5.0,68,0.00,,---,0.00,VWS V14.01,2013-02-13 20:01:00,
2013-02-13 15:06:00,40.1,30.4,29.74,SW,215,4.0,5.0,68,0.00,,---,0.00,VWS V14.01,2013-02-13 20:06:00,
2013-02-13 15:11:00,40.5,30.0,29.74,SW,221,6.0,7.0,66,0.00,,---,0.00,VWS V14.01,2013-02-13 20:11:00,
2013-02-13 15:16:00,40.7,30.6,29.74,SW,217,7.0,8.0,67,0.00,,---,0.00,VWS V14.01,2013-02-13 20:16:00,
2013-02-13 15:21:00,40.6,30.5,29.74,SW,225,5.0,8.0,67,0.00,,---,0.00,VWS V14.01,2013-02-13 20:21:00,
2013-02-13 15:26:00,40.5,30.4,29.74,SW,224,4.0,5.0,67,0.00,,---,0.00,VWS V14.01,2013-02-13 20:26:00,
2013-02-13 15:31:00,40.5,30.4,29.74,SW,224,4.0,5.0,67,0.00,,---,0.00,VWS V14.01,2013-02-13 20:31:00,
2013-02-13 15:36:00,40.5,30.0,29.74,SW,224,4.0,7.0,66,0.00,,---,0.00,VWS V14.01,2013-02-13 20:36:00,
2013-02-13 15:41:00,40.4,30.3,29.74,SW,224,3.0,5.0,67,0.00,,---,0.00,VWS V14.01,2013-02-13 20:41:00,
2013-02-13 15:46:00,40.2,30.1,29.74,SW,225,6.0,7.0,67,0.00,,---,0.00,VWS V14.01,2013-02-13 20:46:00,
2013-02-13 15:51:00,40.1,30.4,29.75,SW,232,6.0,7.0,68,0.00,,---,0.00,VWS V14.01,2013-02-13 20:51:00,
2013-02-13 15:56:00,40.1,30.0,29.74,SSW,209,5.0,7.0,67,0.00,,---,0.00,VWS V14.01,2013-02-13 20:56:00,
2013-02-13 16:01:00,40.1,30.0,29.74,SW,223,2.0,4.0,67,0.00,,---,0.00,VWS V14.01,2013-02-13 21:01:00,
2013-02-13 16:06:00,40.3,30.2,29.75,SW,223,4.0,5.0,67,0.00,,---,0.00,VWS V14.01,2013-02-13 21:06:00,
2013-02-13 16:11:00,40.6,30.5,29.74,SW,223,3.0,5.0,67,0.00,,---,0.00,VWS V14.01,2013-02-13 21:11:00,
2013-02-13 16:16:00,40.8,30.3,29.74,SW,223,3.0,5.0,66,0.00,,---,0.00,VWS V14.01,2013-02-13 21:16:00,
2013-02-13 16:21:00,41.3,30.8,29.74,SW,223,2.0,3.0,66,0.00,,---,0.00,VWS V14.01,2013-02-13 21:21:00,
2013-02-13 16:26:00,41.6,30.7,29.74,SW,223,4.0,5.0,65,0.00,,---,0.00,VWS V14.01,2013-02-13 21:26:00,
2013-02-13 16:31:00,41.8,30.5,29.74,SW,234,4.0,7.0,64,0.00,,---,0.00,VWS V14.01,2013-02-13 21:31:00,
2013-02-13 16:36:00,41.7,31.2,29.74,SW,234,4.0,5.0,66,0.00,,---,0.00,VWS V14.01,2013-02-13 21:36:00,
2013-02-13 16:41:00,41.5,31.0,29.74,SW,234,4.0,6.0,66,0.00,,---,0.00,VWS V14.01,2013-02-13 21:41:00,
2013-02-13 16:46:00,41.3,30.8,29.74,SW,234,6.0,6.0,66,0.00,,---,0.00,VWS V14.01,2013-02-13 21:46:00,
2013-02-13 16:51:00,40.9,30.4,29.74,SW,234,6.0,8.0,66,0.00,,---,0.00,VWS V14.01,2013-02-13 21:51:00,
2013-02-13 16:56:00,40.6,30.9,29.74,SW,234,4.0,5.0,68,0.00,,---,0.00,VWS V14.01,2013-02-13 21:56:00,
2013-02-13 17:01:00,40.3,31.0,29.74,SW,234,4.0,6.0,69,0.00,,---,0.00,VWS V14.01,2013-02-13 22:01:00,
2013-02-13 17:06:00,40.0,30.3,29.74,SW,235,3.0,5.0,68,0.00,,---,0.00,VWS V14.01,2013-02-13 22:06:00,
2013-02-13 17:11:00,39.9,30.2,29.74,SW,235,3.0,3.0,68,0.00,,---,0.00,VWS V14.01,2013-02-13 22:11:00,
2013-02-13 17:16:00,39.7,30.4,29.75,SW,235,2.0,4.0,69,0.00,,---,0.00,VWS V14.01,2013-02-13 22:16:00,
2013-02-13 17:21:00,39.3,30.4,29.74,SW,235,0.0,2.0,70,0.00,,---,0.00,VWS V14.01,2013-02-13 22:21:00,
2013-02-13 17:26:00,39.0,30.4,29.75,SW,235,0.0,0.0,71,0.00,,---,0.00,VWS V14.01,2013-02-13 22:26:00,
2013-02-13 17:31:00,38.8,29.9,29.75,SW,235,0.0,0.0,70,0.00,,---,0.00,VWS V14.01,2013-02-13 22:31:00,
2013-02-13 17:36:00,38.6,30.0,29.75,SW,235,0.0,0.0,71,0.00,,---,0.00,VWS V14.01,2013-02-13 22:36:00,
2013-02-13 17:41:00,38.3,29.7,29.75,SW,235,0.0,0.0,71,0.00,,---,0.00,VWS V14.01,2013-02-13 22:41:00,
2013-02-13 17:46:00,37.9,29.7,29.75,SW,235,0.0,0.0,72,0.00,,---,0.00,VWS V14.01,2013-02-13 22:46:00,
2013-02-13 17:51:00,37.4,29.5,29.75,SW,235,0.0,0.0,73,0.00,,---,0.00,VWS V14.01,2013-02-13 22:51:00,
2013-02-13 17:56:00,36.8,29.6,29.75,SW,235,0.0,0.0,75,0.00,,---,0.00,VWS V14.01,2013-02-13 22:56:00,
2013-02-13 18:01:00,36.5,29.7,29.75,SW,235,0.0,0.0,76,0.00,,---,0.00,VWS V14.01,2013-02-13 23:01:00,
2013-02-13 18:06:00,36.4,29.6,29.75,SW,235,0.0,0.0,76,0.00,,---,0.00,VWS V14.01,2013-02-13 23:06:00,
2013-02-13 18:11:00,36.2,29.7,29.75,SW,235,0.0,0.0,77,0.00,,---,0.00,VWS V14.01,2013-02-13 23:11:00,
2013-02-13 18:16:00,36.1,29.3,29.75,SW,235,0.0,0.0,76,0.00,,---,0.00,VWS V14.01,2013-02-13 23:16:00,
2013-02-13 18:21:00,36.0,28.9,29.75,SW,235,0.0,0.0,75,0.00,,---,0.00,VWS V14.01,2013-02-13 23:21:00,
2013-02-13 18:26:00,35.7,28.9,29.75,SW,235,0.0,0.0,76,0.00,,---,0.00,VWS V14.01,2013-02-13 23:26:00,
2013-02-13 18:31:00,35.5,29.0,29.76,SW,235,0.0,0.0,77,0.00,,---,0.00,VWS V14.01,2013-02-13 23:31:00,
2013-02-13 18:36:00,35.2,28.7,29.76,SW,235,0.0,0.0,77,0.00,,---,0.00,VWS V14.01,2013-02-13 23:36:00,
2013-02-13 18:41:00,34.9,28.8,29.76,SW,235,0.0,0.0,78,0.00,,---,0.00,VWS V14.01,2013-02-13 23:41:00,
2013-02-13 18:46:00,34.5,28.7,29.76,SW,235,0.0,0.0,79,0.00,,---,0.00,VWS V14.01,2013-02-13 23:46:00,
2013-02-13 18:51:00,34.2,28.7,29.76,SW,235,0.0,0.0,80,0.00,,---,0.00,VWS V14.01,2013-02-13 23:51:00,
2013-02-13 18:56:00,34.1,28.9,29.76,SW,235,0.0,0.0,81,0.00,,---,0.00,VWS V14.01,2013-02-13 23:56:00,
2013-02-13 19:01:00,33.9,28.7,29.76,SW,235,2.0,3.0,81,0.00,,---,0.00,VWS V14.01,2013-02-14 00:01:00,
2013-02-13 19:06:00,33.8,28.6,29.76,SW,235,3.0,3.0,81,0.00,,---,0.00,VWS V14.01,2013-02-14 00:06:00,
2013-02-13 19:11:00,33.7,28.8,29.76,SW,235,2.0,3.0,82,0.00,,---,0.00,VWS V14.01,2013-02-14 00:11:00,
2013-02-13 19:16:00,33.6,28.7,29.76,SW,235,0.0,2.0,82,0.00,,---,0.00,VWS V14.01,2013-02-14 00:16:00,
2013-02-13 19:21:00,33.5,28.6,29.76,SW,235,1.0,2.0,82,0.00,,---,0.00,VWS V14.01,2013-02-14 00:21:00,
2013-02-13 19:26:00,33.5,28.6,29.76,SW,235,1.0,2.0,82,0.00,,---,0.00,VWS V14.01,2013-02-14 00:26:00,
2013-02-13 19:31:00,33.4,28.5,29.76,SW,235,0.0,0.0,82,0.00,,---,0.00,VWS V14.01,2013-02-14 00:31:00,
2013-02-13 19:36:00,33.2,28.3,29.76,SW,235,0.0,0.0,82,0.00,,---,0.00,VWS V14.01,2013-02-14 00:36:00,
2013-02-13 19:41:00,33.0,27.8,29.76,SW,235,0.0,0.0,81,0.00,,---,0.00,VWS V14.01,2013-02-14 00:41:00,
2013-02-13 19:46:00,32.7,27.5,29.77,SW,235,0.0,0.0,81,0.00,,---,0.00,VWS V14.01,2013-02-14 00:46:00,
2013-02-13 19:51:00,32.4,27.5,29.76,SW,235,0.0,0.0,82,0.00,,---,0.00,VWS V14.01,2013-02-14 00:51:00,
2013-02-13 19:56:00,32.0,27.1,29.76,SW,235,0.0,0.0,82,0.00,,---,0.00,VWS V14.01,2013-02-14 00:56:00,
2013-02-13 20:01:00,31.7,27.1,29.76,SW,235,0.0,0.0,83,0.00,,---,0.00,VWS V14.01,2013-02-14 01:01:00,
2013-02-13 20:06:00,31.6,27.6,29.76,SW,235,0.0,0.0,85,0.00,,---,0.00,VWS V14.01,2013-02-14 01:06:00,
2013-02-13 20:11:00,31.3,27.0,29.76,SW,235,0.0,0.0,84,0.00,,---,0.00,VWS V14.01,2013-02-14 01:11:00,
2013-02-13 20:16:00,31.1,26.8,29.77,SW,235,0.0,0.0,84,0.00,,---,0.00,VWS V14.01,2013-02-14 01:16:00,
2013-02-13 20:21:00,30.8,26.3,29.76,SW,235,0.0,0.0,83,0.00,,---,0.00,VWS V14.01,2013-02-14 01:21:00,
2013-02-13 20:26:00,30.3,25.2,29.76,SW,235,0.0,0.0,81,0.00,,---,0.00,VWS V14.01,2013-02-14 01:26:00,
2013-02-13 20:31:00,30.0,25.2,29.76,SW,235,0.0,0.0,82,0.00,,---,0.00,VWS V14.01,2013-02-14 01:31:00,
2013-02-13 20:36:00,29.8,25.6,29.76,SW,235,0.0,0.0,84,0.00,,---,0.00,VWS V14.01,2013-02-14 01:36:00,
2013-02-13 20:41:00,29.5,25.6,29.76,SW,235,2.0,2.0,85,0.00,,---,0.00,VWS V14.01,2013-02-14 01:41:00,
2013-02-13 20:46:00,29.4,26.0,29.76,SW,235,3.0,3.0,87,0.00,,---,0.00,VWS V14.01,2013-02-14 01:46:00,
2013-02-13 20:51:00,29.4,26.3,29.76,SW,235,3.0,3.0,88,0.00,,---,0.00,VWS V14.01,2013-02-14 01:51:00,
2013-02-13 20:56:00,29.4,26.6,29.76,SW,235,2.0,3.0,89,0.00,,---,0.00,VWS V14.01,2013-02-14 01:56:00,
2013-02-13 21:01:00,29.5,26.7,29.76,SW,235,2.0,2.0,89,0.00,,---,0.00,VWS V14.01,2013-02-14 02:01:00,
2013-02-13 21:06:00,29.6,26.8,29.76,SW,235,1.0,2.0,89,0.00,,---,0.00,VWS V14.01,2013-02-14 02:06:00,
2013-02-13 21:11:00,29.7,26.9,29.76,SW,235,2.0,3.0,89,0.00,,---,0.00,VWS V14.01,2013-02-14 02:11:00,
2013-02-13 21:16:00,29.7,26.9,29.76,SW,235,0.0,2.0,89,0.00,,---,0.00,VWS V14.01,2013-02-14 02:16:00,
2013-02-13 21:21:00,29.6,26.8,29.76,SW,235,0.0,0.0,89,0.00,,---,0.00,VWS V14.01,2013-02-14 02:21:00,
2013-02-13 21:26:00,29.5,26.7,29.76,SW,235,0.0,0.0,89,0.00,,---,0.00,VWS V14.01,2013-02-14 02:26:00,
2013-02-13 21:31:00,29.3,26.2,29.76,SW,235,0.0,0.0,88,0.00,,---,0.00,VWS V14.01,2013-02-14 02:31:00,
2013-02-13 21:36:00,29.1,26.0,29.76,SW,235,0.0,0.0,88,0.00,,---,0.00,VWS V14.01,2013-02-14 02:36:00,
2013-02-13 21:41:00,28.9,25.5,29.76,SW,235,0.0,0.0,87,0.00,,---,0.00,VWS V14.01,2013-02-14 02:41:00,
2013-02-13 21:46:00,28.6,25.2,29.76,SW,235,0.0,0.0,87,0.00,,---,0.00,VWS V14.01,2013-02-14 02:46:00,
2013-02-13 21:51:00,28.2,24.8,29.76,SW,235,0.0,0.0,87,0.00,,---,0.00,VWS V14.01,2013-02-14 02:51:00,
2013-02-13 21:56:00,27.9,24.5,29.76,SW,235,0.0,0.0,87,0.00,,---,0.00,VWS V14.01,2013-02-14 02:56:00,
2013-02-13 22:01:00,27.7,24.6,29.76,SW,235,0.0,0.0,88,0.00,,---,0.00,VWS V14.01,2013-02-14 03:01:00,
2013-02-13 22:06:00,27.6,24.8,29.76,SW,235,0.0,0.0,89,0.00,,---,0.00,VWS V14.01,2013-02-14 03:06:00,
2013-02-13 22:11:00,27.4,24.6,29.76,SW,235,0.0,0.0,89,0.00,,---,0.00,VWS V14.01,2013-02-14 03:11:00,
2013-02-13 22:16:00,27.3,24.8,29.76,SW,235,0.0,0.0,90,0.00,,---,0.00,VWS V14.01,2013-02-14 03:16:00,
2013-02-13 22:21:00,27.3,24.8,29.75,SW,235,0.0,0.0,90,0.00,,---,0.00,VWS V14.01,2013-02-14 03:21:00,
2013-02-13 22:26:00,27.3,25.0,29.75,SW,235,0.0,0.0,91,0.00,,---,0.00,VWS V14.01,2013-02-14 03:26:00,
2013-02-13 22:31:00,27.4,25.1,29.76,SW,235,0.0,0.0,91,0.00,,---,0.00,VWS V14.01,2013-02-14 03:31:00,
2013-02-13 22:36:00,27.4,25.1,29.76,SW,235,0.0,0.0,91,0.00,,---,0.00,VWS V14.01,2013-02-14 03:36:00,
2013-02-13 22:41:00,27.3,25.0,29.76,SW,235,0.0,0.0,91,0.00,,---,0.00,VWS V14.01,2013-02-14 03:41:00,
2013-02-13 22:46:00,27.1,24.6,29.76,SW,235,0.0,0.0,90,0.00,,---,0.00,VWS V14.01,2013-02-14 03:46:00,
2013-02-13 22:51:00,26.9,24.4,29.76,SW,235,0.0,0.0,90,0.00,,---,0.00,VWS V14.01,2013-02-14 03:51:00,
2013-02-13 22:56:00,26.7,23.9,29.76,SW,235,0.0,0.0,89,0.00,,---,0.00,VWS V14.01,2013-02-14 03:56:00,
2013-02-13 23:01:00,26.4,23.9,29.76,SW,235,0.0,0.0,90,0.00,,---,0.00,VWS V14.01,2013-02-14 04:01:00,
2013-02-13 23:06:00,26.3,23.8,29.76,SW,235,0.0,0.0,90,0.00,,---,0.00,VWS V14.01,2013-02-14 04:06:00,
2013-02-13 23:11:00,26.2,23.7,29.76,SW,235,0.0,0.0,90,0.00,,---,0.00,VWS V14.01,2013-02-14 04:11:00,
2013-02-13 23:16:00,26.2,23.9,29.76,SW,235,0.0,0.0,91,0.00,,---,0.00,VWS V14.01,2013-02-14 04:16:00,
2013-02-13 23:21:00,26.5,24.5,29.76,SW,235,0.0,0.0,92,0.00,,---,0.00,VWS V14.01,2013-02-14 04:21:00,
2013-02-13 23:26:00,26.7,24.7,29.76,SW,235,1.0,2.0,92,0.00,,---,0.00,VWS V14.01,2013-02-14 04:26:00,
2013-02-13 23:31:00,27.0,25.2,29.76,SW,235,0.0,0.0,93,0.00,,---,0.00,VWS V14.01,2013-02-14 04:31:00,
2013-02-13 23:36:00,27.4,25.6,29.76,SW,235,1.0,2.0,93,0.00,,---,0.00,VWS V14.01,2013-02-14 04:36:00,
2013-02-13 23:41:00,27.8,26.0,29.75,SW,235,2.0,2.0,93,0.00,,---,0.00,VWS V14.01,2013-02-14 04:41:00,
2013-02-13 23:46:00,28.0,26.2,29.75,SW,235,2.0,3.0,93,0.00,,---,0.00,VWS V14.01,2013-02-14 04:46:00,
2013-02-13 23:51:00,28.3,26.5,29.76,SW,235,3.0,3.0,93,0.00,,---,0.00,VWS V14.01,2013-02-14 04:51:00,
2013-02-13 23:56:00,28.5,26.7,29.75,SW,235,0.0,3.0,93,0.00,,---,0.00,VWS V14.01,2013-02-14 04:56:00,